Weather Service Report


423 
ASUS43 KMKX 221021
RWRWI 

WISCONSIN REGIONAL WEATHER ROUNDUP
NATIONAL WEATHER SERVICE MILWAUKEE/SULLIVAN WI
500 AM CDT WED OCT 22 2014

NOTE: "FAIR" INDICATES FEW OR NO CLOUDS BELOW 12,000 FEET WITH NO
SIGNIFICANT WEATHER AND/OR OBSTRUCTIONS TO VISIBILITY.

WIZ001-002-006>008-014>016-023>028-221100-
NORTHWEST WISCONSIN
  
CITY           SKY/WX    TMP DP  RH WIND       PRES   REMARKS
SUPERIOR ARPT  CLEAR     28  27  96 CALM      30.22R                  
ASHLAND        CLEAR     30  29  96 S5        30.26R WCI  25          
HAYWARD        CLEAR     39  33  79 S5        30.24S                  
SIREN          CLEAR     41  34  76 S8        30.22R                  
CUMBERLAND     CLEAR     36  32  87 SE7       30.23S WCI  30          
RICE LAKE      CLEAR     37  33  87 SE7       30.26S WCI  32          
CHETEK         CLEAR     36  34  90 SE5       30.26R WCI  32          
LADYSMITH      CLEAR     33  32  94 E6        30.29R WCI  28          
EAU CLAIRE     CLEAR     37  32  82 SE9       30.27R WCI  30          
MENOMONIE      CLEAR     34  32  92 SE6       30.26R WCI  29          
NEW RICHMOND   CLEAR     38  34  85 SE7       30.23R WCI  33          
OSCEOLA        CLEAR     41  37  84 SE10      30.24R                  
$$
 
WIZ003>005-009-010-017-018-221100-
NORTH CENTRAL WISCONSIN
  
CITY           SKY/WX    TMP DP  RH WIND       PRES   REMARKS
MANITOWISH WTR CLEAR     32  32  99 SE5       30.28R WCI  27          
ARBOR VITAE    CLEAR     33  31  93 SE5       30.28S WCI  28          
WOODRUFF       CLEAR     33  31  93 SE5       30.28S WCI  28          
RHINELANDER    CLEAR     29  27  92 SE5       30.30S WCI  24          
EAGLE RIVER    PTCLDY    26  26 100 CALM      30.29S                  
LAND O LAKES   PTCLDY    23  23  97 CALM      30.30R                  
PHILLIPS       CLEAR     29  28  98 E5        30.27R WCI  24          
TOMAHAWK       CLEAR     29  28  97 CALM      30.30S                  
MEDFORD        PTCLDY    33  31  93 SE3       30.29R                  
MERRILL        CLEAR     27  26  98 CALM      30.31R FOG              
$$
 
WIZ029-030-035-036-043>047-221100-
CENTRAL WISCONSIN
  
CITY           SKY/WX    TMP DP  RH WIND       PRES   REMARKS
WAUSAU         CLEAR     31  29  92 E5        30.31R WCI  26          
MOSINEE        CLEAR     30  30 100 E5        30.32R WCI  25          
MARSHFIELD     PTCLDY    33  30  88 SE5       30.30R WCI  29          
STEVENS POINT  CLEAR     27  26  96 CALM      30.32S                  
WAUPACA        CLEAR     31  30  96 NW3       30.33S                  
WAUTOMA        PTCLDY    25  25 100 CALM      30.33R                  
WISC RAPIDS    PTCLDY    28  26  92 CALM      30.33R                  
CAMP DOUGLAS   PTCLDY    23  23 100 SE3       30.31R                  
$$
 
WIZ011>013-019>022-031-037>040-048>050-221100-
NORTHEAST WISCONSIN
  
CITY           SKY/WX    TMP DP  RH WIND       PRES   REMARKS
ANTIGO         CLEAR     31  31 100 SE5       30.31R WCI  26          
SHAWANO        CLEAR     34  32  92 NE5       30.34S WCI  30          
OCONTO         CLEAR     28  28 100 CALM      30.34S                  
STURGEON BAY   CLEAR     34  30  86 CALM      30.35R                  
GREEN BAY      CLEAR     30  28  92 NE3       30.34S                  
MANITOWOC      CLEAR     31  30  96 CALM      30.34R                  
APPLETON       CLEAR     32  32 100 NE5       30.32S WCI  27          
CLINTONVILLE   CLEAR     32  30  93 CALM      30.33S                  
OSHKOSH        CLEAR     30  29  96 CALM      30.32R                  
$$
 
WIZ032>034-041-042-053>061-221100-
SOUTHWEST WISCONSIN
  
CITY           SKY/WX    TMP DP  RH WIND       PRES   REMARKS
LA CROSSE      CLEAR     38  34  85 E5        30.29R WCI  34          
SPARTA         CLEAR     25  25  99 CALM      30.30S                  
VIROQUA        CLEAR     35  35 100 SE7       30.27F WCI  30          
BOSCOBEL       FOG       35  33  92 E3        30.32R VSB 1/4          
PRAIRIE DU CHI CLEAR     37  34  89 SE3       30.29S                  
PLATTEVILLE    CLEAR     34  33  95 E7        30.31S WCI  28          
$$

WIZ056-057-062-063-064-067-068-221100-
SOUTH CENTRAL WISCONSIN
  
CITY           SKY/WX    TMP DP  RH WIND       PRES   REMARKS
REEDSBURG      CLOUDY    28  27  98 CALM      30.31S                  
BARABOO/DELLS  PTCLDY    28  28  96 CALM      30.31S                  
LONE ROCK      FOG       33  29  85 CALM      30.32S VSB 1/2          
MINERAL POINT  PTCLDY    36  34  93 E3        30.29S                  
MADISON        FOG       29  28  96 CALM      30.32R VSB 3/4          
MIDDLETON      MOCLDY    29  29 100 CALM      30.32S                  
WATERTOWN      MOCLDY    26  25  98 CALM      30.31S FOG              
MONROE         PTCLDY    36  34  93 NE5       30.30S WCI  32          
JANESVILLE     PTCLDY    32  30  93 CALM      30.31R FOG              
$$
 
WIZ051-052-058>065-066-070>072-221100-
SOUTHEAST WISCONSIN
  
CITY           SKY/WX    TMP DP  RH WIND       PRES   REMARKS
MILWAUKEE      PTCLDY    37  34  89 NW6       30.31S WCI  32          
WAUKESHA       CLEAR     32  32 100 CALM      30.32R                  
MILWAUKEE/TIMM CLEAR     32  30  93 CALM      30.32S                  
RACINE         CLEAR     36  33  89 NW5       30.32R WCI  32          
BURLINGTON     CLEAR     26  26 100 CALM      30.31S FOG              
KENOSHA        PTCLDY    33  31  92 CALM      30.31R                  
FOND DU LAC    PTCLDY    27  24  89 CALM      30.32S                  
SHEBOYGAN      CLEAR     28  27  96 NW3       30.33R                  
WEST BEND      PTCLDY    30  28  93 CALM      30.32R                  
JUNEAU         PTCLDY    30  30  99 CALM      30.32S                  
$$

LSZ147-162-221100-
LAKE SUPERIOR
  
STATION/POSITION TIME  TEMP    WIND        PRES    WAVE
                       AIR SEA DIR/SP/G            HT/PER
                 (UTC) (F)     (DEG/KT/KT) (MB)    (FT/S)
W MID LAKE BUOY  0950   45 46  160/ 14/ 16 1025.0R   3/ 5
DEVILS ISLAND    1000   45     170/  6/  7 1024.9R
PORT WING        0940   43     160/  8/ 12 1023.7R
SAXON HARBOR     0900   32      CALM  /  3 1023.7F
$$
 
LMZ867-665-643>646-221100-
LAKE MICHIGAN
  
STATION/POSITION TIME  TEMP    WIND        PRES    WAVE
                       AIR SEA DIR/SP/G            HT/PER
                 (UTC) (F)     (DEG/KT/KT) (MB)    (FT/S)
CHAMBERS ISLAND  0900   34      CALM  /  1 1027.4R
N MID LAKE BUOY  0950   44 51  150/  6/ 10 1028.3R   1/ 3
NORTHPORT PIER   0900   43     160/  4/  6 1027.1S
SISTER BAY       0928          150/  5/  6   N/A
KEWAUNEE LAKESHO 1000   32     300/  3/  5 1026.4R
SHEBOYGAN LAKESH 1000   46 49  120/  8/  9 1027.5R
PORT WASHINGTON  0940   36     280/  3/  4 1027.1R
ATWATER BUOY     1000   44     290/  6/  8 1027.5R
MILWAUKEE LAKESH 1000   40     320/  6/  7   N/A
S MID LAKE BUOY  0950   46 54  100/ 10/ 12 1026.8R   3/ 6
KENOSHA   LAKESH 1000   39     300/  4/  6 1026.1R
$$

TC  - TEMPERATURE IN CELSIUS
VSB - VISIBILITY IN STATUTE MILES
WCI - WIND CHILL INDEX
HX  - HEAT INDEX


Return to Home page


Western Regional Climate Center, wrcc@dri.edu